User: anonymous   Login
Location: Dackenheim
(49.5215°N, 8.1854°E)
Time: 23:11:30
(UTC+00:00)
Language:

NANOSAT C BR1 - Orbit

View from above orbital plane
View from above orbital plane
View from above satellite
View from above satellite

Ground track
Ground track

The orbit is defined by the following mean orbital elements,

1 40024U          26072.51845422 +.00000000 +00000-0 +75539-3 0 00003
2 40024  98.0842  96.6153 0004981 139.6908 220.4700 15.28283055    05
Epoch (UTC): 13 March 2026 12:26:34
Eccentricity: 0.0004981
inclination: 98.0842°
perigee height: 478 km
apogee height: 484 km
right ascension of ascending node: 96.6153°
argument of perigee: 139.6908°
revolutions per day: 15.28283055
mean anomaly at epoch: 220.4700°

The dashed part of the orbit path shows where the satellite is in the earth's shadow,  

DLR